Regional Weather Roundup
Issued by NWS

Home | Current Version | Previous Version | Text Only | Print | Product List | Glossary On
Versions: 1 2 3 4 5 6 7 8 9 10 11 12 13 14 15 16 17 18 19 20 21 22 23 24 25 26 27 28 29 30 31 32 33 34 35 36 37 38 39 40 41 42 43 44 45 46 47 48 49 50
000
ASUS43 KFSD 250602
RWRSD

WEATHER ROUNDUP FOR SOUTH DAKOTA
NATIONAL WEATHER SERVICE SIOUX FALLS SD
1200 AM CST SUN JAN 25 2015

NOTE: "FAIR" INDICATES FEW OR NO CLOUDS BELOW 12,000 FEET WITH NO
SIGNIFICANT WEATHER AND/OR OBSTRUCTIONS TO VISIBILITY.


SDZ001>005-009-010-012>017-250700-
NORTHWEST AND NORTH CENTRAL SOUTH DAKOTA

CITY           SKY/WX    TMP DP  RH WIND       PRES   REMARKS
BUFFALO          N/A     36  29  75 NW25      29.91R
FAITH            N/A     38  30  73 NW20G30   29.91R
MOBRIDGE       CLOUDY    38  35  89 NW13      29.81R
$$

SDZ012>016-024>037-041>051-057-063-072>074-250700-
SOUTHWEST AND SOUTH CENTRAL SOUTH DAKOTA

CITY           SKY/WX    TMP DP  RH WIND       PRES   REMARKS
RAPID CTY ARPT CLEAR     39  26  59 NW24G35   29.98R
PIERRE         LGT RAIN  36  34  92 NW10      29.85R
CUSTER         CLEAR     33  14  45 NW15G28   29.98S WCI  23
PHILIP         CLOUDY    41  31  67 NW21G30   29.92R
PINE RIDGE     CLEAR     36  25  64 W7        29.98S
WINNER         CLOUDY    39  35  86 NW30G37   29.83R
$$

SDZ004>011-016>023-039-040-250700-
NORTHEAST SOUTH DAKOTA

CITY           SKY/WX    TMP DP  RH WIND       PRES   REMARKS
ABERDEEN       LGT SNOW  32  29  88 N15G24    29.81R FOG     WCI  22
WATERTOWN      LGT SNOW  31  29  92 N15       29.71R FOG     WCI  20
$$

SDZ017-020-022-023-036>040-048>070-250700-
SOUTHEAST SOUTH DAKOTA

CITY           SKY/WX    TMP DP  RH WIND       PRES   REMARKS
SIOUX FALLS    LGT SNOW  33  32  96 N13       29.66R FOG     WCI  24
HURON          LGT SNOW  32  31  96 N21G28    29.77R FOG     WCI  20
MITCHELL       LGT SNOW  33  32  96 N23       29.76R FOG     WCI  21
YANKTON        CLOUDY   N/A N/A N/A NW28G33   29.67R
$$

ABBREVIATIONS USED IN REMARKS
   TC - TEMPERATURE IN CELSIUS
  WCI - WIND CHILL INDEX
   HX - HEAT INDEX
  VSB - VISIBILITY



USA.gov is the U.S. government's official web portal to all federal, state and local government web resources and services.